Цуриб

Россия / Республика Дагестан     42°14′24″N   46°50′01″E
темп.,
°C
ветер,
м/с
пор.,
м/с
влажн.,
%
обл.,
%
осадки,
мм/ч
давл.,
гПа
погр.,
м
5 марта, пт
пт500:00−10юз555358 0.0 102340
03:00−9юз444664 0.0 102231
06:00−10юз3338100 0.0 102023
09:00−4з115176 0.0 101955
12:00−2с21610 0.0 1017283
15:00−2св11590 0.0 1016332
18:00−8юз23620 0.0 101921
21:00−8юз44320 0.0 102122
6 марта, сб
сб600:00−8юз44270 0.0 102124
03:00−8юз55320 0.0 102133
06:00−8ююз65450 0.0 102136
09:00−2юз33590 0.0 102072
12:00+1юз34860 0.0 1017194
15:000юз46691 0.0 1014259
18:00−6юз76430 0.0 101472
21:00−6юз874217 0.0 101488
7 марта, вс
вс700:00−6юз7853100 0.0 1013109
03:00−6юз6760100 0.0 101492
06:00−7юз5561100 0.0 101673
09:00−3зюз257183 0.0 1019590
12:00−4ссз148112 0.1 1019696
15:00−5ссв138829 0.3 1020644
18:00−11ююз338553 0.3 102261
21:00−11юз447235 0.3 102473
8 марта, пн
пн800:00−11юз448016 0.1 102475
03:00−12юз557810 0.1 102463
06:00−12юз44790 0.0 102448
09:00−6юз24740 0.0 1022313
12:00−4зюз14730 0.0 1019563
15:00−4з13710 0.0 1016569
18:00−9юз228539 0.1 101739
21:00−12юз337920 0.1 101830
9 марта, вт
вт900:00−13юз337913 0.0 101830
03:00−14юз337413 0.0 101825
06:00−14ююз446434 0.0 101829
09:00−8юз455921 0.0 1017336
12:00−5юз58500 0.0 10151358
15:00−6юз46620 0.0 10141190
18:00−12юз66731 0.0 101586
21:00−12юз77680 0.0 101796